Change the Weather History Date:

Sunday, September 22, 2013

  Actual Average Record
Temperature  
Mean Temperature 46 °F -  
Max Temperature 55 °F 70 °F 87 °F (1987)
Min Temperature 37 °F 50 °F 37 °F (1973)
Degree Days  
Heating Degree Days 19    
Moisture  
Dew Point 39 °F    
Average Humidity 77    
Maximum Humidity 100    
Minimum Humidity 57    
Precipitation  
Precipitation 10.00 in - - ()
Sea Level Pressure  
Sea Level Pressure 30.17 in    
Wind  
Wind Speed 2 mph (NNW)    
Max Wind Speed 8 mph    
Max Gust Speed -    
Visibility 10 miles    
Events      
Averages and records for this station are not official NWS values.
T = Trace of Precipitation, MM = Missing Value Source: NWS Daily Summary

Daily Weather History Graph

Daily Weather History Graph

Search for Another Location

Airport or City:

Trip Planner

Search our weather history database for the weather conditions in past years. The results will help you decide how hot, cold, wet, or windy it might be!

Date:

Astronomy

Sep. 22, 2013 Rise Set
Actual Time 6:50 AM PDT 6:59 PM PDT
Civil Twilight 6:24 AM PDT 7:26 PM PDT
Nautical Twilight 5:52 AM PDT 7:57 PM PDT
Astronomical Twilight 5:20 AM PDT 8:29 PM PDT
Moon 8:54 PM PDT (9/22) 10:14 AM PDT (9/22)
Length of Visible Light 13h 01m
Length of Day
12h 08m
Waning Gibbous, 88% of the Moon is Illuminated
Sep 22
Waning Gibbous
Sep 26
Last Quarter
Oct 4
New
Oct 11
First Quarter
Oct 18
Full

Hourly Weather History & Observations

Time (PDT) Temp. Windchill Dew Point Humidity Pressure Visibility Wind Dir Wind Speed Gust Speed Precip Events Conditions
12:28 AM 39.2 °F - 37.4 °F 93% 29.94 in 10.0 mi Calm Calm - N/A   Overcast
12:52 AM 39.0 °F - 37.9 °F 96% 29.88 in 9.0 mi Calm Calm - N/A   Overcast
12:55 AM 39.2 °F - 39.2 °F 100% 30.42 in 9.0 mi Calm Calm - N/A   Overcast
1:52 AM 39.0 °F - 37.9 °F 96% 29.89 in 10.0 mi Calm Calm - 0.01 in   Overcast
1:55 AM 39.2 °F - 37.4 °F 93% 30.42 in 10.0 mi Calm Calm - 10.00 in   Overcast
2:52 AM 39.0 °F - 37.9 °F 96% 29.91 in 10.0 mi Calm Calm - N/A   Overcast
2:55 AM 39.2 °F - 37.4 °F 93% 30.42 in 10.0 mi Calm Calm - N/A   Overcast
3:52 AM 39.9 °F 37.8 °F 37.0 °F 89% 29.92 in 10.0 mi NE 3.5 mph - N/A   Overcast
3:55 AM 39.2 °F - 37.4 °F 93% 30.42 in 10.0 mi Calm Calm - N/A   Overcast
4:11 AM 39.2 °F - 37.4 °F 93% 29.96 in 10.0 mi Calm Calm - N/A   Scattered Clouds
4:52 AM 39.9 °F - 36.0 °F 86% 29.91 in 10.0 mi Calm Calm - N/A   Clear
4:55 AM 39.2 °F 37.0 °F 37.4 °F 93% 30.42 in 10.0 mi ENE 3.5 mph - N/A   Clear
5:52 AM 39.0 °F 35.7 °F 35.1 °F 86% 29.92 in 10.0 mi ENE 4.6 mph - N/A   Clear
5:55 AM 39.2 °F 35.9 °F 35.6 °F 87% 30.42 in 10.0 mi NE 4.6 mph - N/A   Clear
6:52 AM 39.0 °F - 35.1 °F 86% 29.94 in 10.0 mi Calm Calm - N/A   Clear
6:55 AM 37.4 °F 34.9 °F 35.6 °F 93% 30.42 in 10.0 mi NE 3.5 mph - N/A   Clear
7:52 AM 42.1 °F - 35.1 °F 76% 29.93 in 10.0 mi Calm Calm - N/A   Clear
7:55 AM 42.8 °F - 35.6 °F 76% 30.42 in 10.0 mi Calm Calm - N/A   Clear
8:52 AM 44.1 °F - 36.0 °F 73% 29.94 in 10.0 mi Calm Calm - N/A   Clear
8:55 AM 44.6 °F - 35.6 °F 71% 30.42 in 10.0 mi Calm Calm - N/A   Clear
9:52 AM 46.9 °F - 39.0 °F 74% 29.94 in 10.0 mi Calm Calm - N/A   Overcast
9:55 AM 48.2 °F - 39.2 °F 71% 30.42 in 10.0 mi Calm Calm - N/A   Overcast
10:52 AM 48.9 °F - 39.0 °F 69% 29.96 in 10.0 mi West 5.8 mph - N/A   Clear
10:55 AM 48.2 °F - 39.2 °F 71% 30.42 in 10.0 mi Variable 4.6 mph - N/A   Clear
11:52 AM 50.0 °F - 39.9 °F 68% 29.96 in 10.0 mi Variable 3.5 mph - N/A   Partly Cloudy
11:55 AM 50.0 °F - 39.2 °F 66% 30.42 in 10.0 mi WSW 5.8 mph - N/A   Partly Cloudy
12:52 PM 52.0 °F - 39.9 °F 63% 29.95 in 10.0 mi Variable 3.5 mph - N/A   Clear
12:55 PM 51.8 °F - 39.2 °F 62% 30.42 in 10.0 mi Variable 3.5 mph - N/A   Clear
1:52 PM 54.0 °F - 39.9 °F 59% 29.95 in 10.0 mi Variable 5.8 mph - N/A   Clear
1:55 PM 53.6 °F - 41.0 °F 62% 30.42 in 10.0 mi SW 5.8 mph - N/A   Clear
2:48 PM 53.6 °F - 39.2 °F 58% 30.05 in 10.0 mi WSW 5.8 mph - N/A   Mostly Cloudy
2:52 PM 54.0 °F - 41.0 °F 62% 29.96 in 10.0 mi Variable 6.9 mph - N/A   Scattered Clouds
2:55 PM 53.6 °F - 41.0 °F 62% 30.42 in 10.0 mi Variable 3.5 mph - N/A   Scattered Clouds
3:52 PM 55.0 °F - 39.9 °F 57% 29.95 in 10.0 mi West 5.8 mph - N/A   Mostly Cloudy
3:55 PM 53.6 °F - 39.2 °F 58% 30.42 in 10.0 mi Variable 4.6 mph - N/A   Mostly Cloudy
4:52 PM 53.1 °F - 41.0 °F 64% 29.97 in 10.0 mi West 8.1 mph - N/A   Partly Cloudy
4:55 PM 53.6 °F - 41.0 °F 62% 30.42 in 10.0 mi Variable 6.9 mph - N/A   Partly Cloudy
5:35 PM 51.8 °F - 42.8 °F 71% 30.07 in 10.0 mi SSW 5.8 mph - N/A   Mostly Cloudy
5:52 PM 51.1 °F - 42.1 °F 71% 29.99 in 10.0 mi WSW 3.5 mph - N/A   Mostly Cloudy
5:55 PM 51.8 °F - 42.8 °F 71% 30.42 in 10.0 mi WSW 4.6 mph - N/A   Scattered Clouds
6:00 PM 51.8 °F - 42.8 °F 71% 30.07 in 10.0 mi West 4.6 mph - N/A   Scattered Clouds
6:52 PM 51.1 °F - 42.1 °F 71% 30.00 in 10.0 mi West 3.5 mph - N/A   Clear
6:55 PM 50.0 °F - 42.8 °F 76% 30.42 in 10.0 mi West 3.5 mph - N/A   Clear
7:52 PM 48.0 °F - 42.1 °F 80% 30.00 in 10.0 mi Calm Calm - N/A   Clear
7:55 PM 48.2 °F - 42.8 °F 82% 30.42 in 10.0 mi Calm Calm - N/A   Clear
8:52 PM 46.9 °F - 42.1 °F 83% 30.01 in 10.0 mi North 4.6 mph - N/A   Clear
8:55 PM 46.4 °F 45.2 °F 42.8 °F 87% 30.42 in 10.0 mi North 3.5 mph - N/A   Clear
9:52 PM 48.0 °F - 43.0 °F 83% 30.00 in 10.0 mi NE 4.6 mph - N/A   Clear
9:55 PM 46.4 °F 44.3 °F 42.8 °F 87% 30.42 in 10.0 mi NE 4.6 mph - N/A   Clear
10:52 PM 48.9 °F - 39.9 °F 71% 30.00 in 10.0 mi NE 3.5 mph - N/A   Clear
10:55 PM 48.2 °F - 39.2 °F 71% 30.42 in 10.0 mi NE 3.5 mph - N/A   Clear
11:52 PM 50.0 °F - 39.0 °F 66% 29.99 in 10.0 mi NNE 3.5 mph - N/A   Clear
11:55 PM 50.0 °F - 39.2 °F 66% 30.42 in 10.0 mi NNE 3.5 mph - N/A   Clear